QPF
0.02 0.02 0.02 0.02 0.03 0.04 0.04 0.04 0.05 0.08 0.09 0.09 0.08 0.10 0.12 0.12 0.09 0.09 0.07 0.06 0.05 0.05 0.06 0.08 0.08 0.12 0.15 0.16 0.16 0.13 0.12 0.11 0.09 0.07 0.06 0.06 0.08 0.07 0.07 0.08 0.07 0.07 0.07
0.01 0.02 0.02 0.03 0.03 0.03 0.03 0.03 0.04 0.06 0.09 0.08 0.09 0.12 0.13 0.11 0.07 0.06 0.06 0.06 0.05 0.07 0.10 0.09 0.08 0.10 0.12 0.12 0.10 0.08 0.07 0.07 0.06 0.07 0.08 0.08 0.08 0.07 0.07 0.06 0.05 0.06 0.07
0.01 0.02 0.03 0.05 0.04 0.03 0.05 0.04 0.06 0.07 0.08 0.06 0.06 0.06 0.07 0.05 0.06 0.06 0.06 0.07 0.08 0.09 0.11 0.10 0.10 0.09 0.09 0.09 0.08 0.07 0.07 0.06 0.08 0.10 0.11 0.10 0.08 0.06 0.05 0.04 0.04 0.06 0.08
0.01 0.02 0.02 0.03 0.03 0.04 0.05 0.04 0.03 0.04 0.03 0.02 0.02 0.03 0.06 0.05 0.05 0.06 0.06 0.08 0.10 0.09 0.09 0.09 0.09 0.09 0.08 0.08 0.07 0.07 0.08 0.10 0.12 0.14 0.11 0.11 0.08 0.07 0.06 0.06 0.06 0.06 0.07
0.01 0.02 0.02 0.03 0.02 0.02 0.02 0.02 0.03 0.02 0.01 0.01 0.02 0.03 0.05 0.07 0.05 0.05 0.06 0.06 0.06 0.06 0.06 0.07 0.10 0.08 0.06 0.06 0.07 0.08 0.10 0.11 0.12 0.12 0.12 0.12 0.12 0.11 0.08 0.08 0.09 0.07 0.07
0.01 0.02 0.01 0.02 0.02 0.01 0.01 0.02 0.03 0.02 0.01 0.01 0.02 0.03 0.05 0.06 0.06 0.05 0.05 0.05 0.04 0.05 0.06 0.07 0.09 0.09 0.06 0.06 0.06 0.07 0.06 0.08 0.09 0.09 0.12 0.14 0.15 0.13 0.09 0.08 0.08 0.07 0.06
0.01 0.01 0.01 0.01 0.01 0.01 0.01 0.01 0.02 0.03 0.01 0.01 0.02 0.04 0.05 0.06 0.05 0.05 0.06 0.05 0.05 0.06 0.07 0.06 0.07 0.09 0.09 0.07 0.06 0.05 0.05 0.05 0.06 0.09 0.10 0.09 0.11 0.11 0.07 0.05 0.04 0.04 0.05
0.01 0.00 0.00 0.00 0.01 0.02 0.01 0.02 0.02 0.03 0.01 0.01 0.02 0.03 0.04 0.04 0.05 0.06 0.07 0.06 0.06 0.06 0.06 0.06 0.10 0.10 0.09 0.08 0.07 0.05 0.04 0.04 0.04 0.05 0.05 0.08 0.08 0.07 0.04 0.04 0.03 0.03 0.04
0.00 0.00 0.01 0.01 0.01 0.02 0.01 0.01 0.02 0.02 0.01 0.01 0.01 0.02 0.04 0.05 0.06 0.06 0.08 0.07 0.06 0.07 0.07 0.05 0.10 0.14 0.12 0.10 0.07 0.05 0.04 0.05 0.06 0.06 0.05 0.07 0.07 0.06 0.04 0.03 0.04 0.04 0.03
0.00 0.00 0.01 0.01 0.01 0.01 0.01 0.01 0.01 0.01 0.02 0.01 0.01 0.02 0.03 0.06 0.08 0.09 0.09 0.07 0.07 0.05 0.05 0.04 0.05 0.09 0.13 0.11 0.07 0.05 0.06 0.07 0.09 0.08 0.06 0.07 0.06 0.05 0.04 0.04 0.05 0.05 0.04
0.00 0.00 0.01 0.02 0.01 0.01 0.01 0.01 0.02 0.01 0.02 0.03 0.02 0.03 0.06 0.10 0.12 0.11 0.08 0.06 0.06 0.05 0.04 0.03 0.03 0.04 0.06 0.10 0.09 0.07 0.08 0.08 0.08 0.08 0.09 0.10 0.07 0.07 0.07 0.06 0.05 0.04 0.03
0.00 0.00 0.00 0.01 0.01 0.01 0.01 0.02 0.03 0.03 0.03 0.05 0.04 0.04 0.07 0.07 0.07 0.07 0.06 0.06 0.05 0.04 0.03 0.01 0.01 0.01 0.02 0.04 0.07 0.08 0.07 0.08 0.09 0.08 0.10 0.10 0.08 0.07 0.07 0.06 0.05 0.04 0.03
0.01 0.01 0.01 0.01 0.01 0.01 0.02 0.02 0.03 0.03 0.04 0.05 0.03 0.02 0.05 0.04 0.03 0.03 0.05 0.04 0.03 0.03 0.02 0.01 0.02 0.02 0.02 0.03 0.04 0.07 0.07 0.07 0.09 0.10 0.10 0.09 0.07 0.07 0.07 0.07 0.05 0.04 0.05
0.01 0.01 0.02 0.01 0.01 0.01 0.01 0.02 0.04 0.03 0.03 0.03 0.02 0.01 0.02 0.03 0.03 0.03 0.04 0.04 0.04 0.04 0.03 0.02 0.02 0.01 0.01 0.01 0.03 0.04 0.05 0.06 0.06 0.07 0.08 0.07 0.06 0.07 0.06 0.06 0.06 0.06 0.05
0.01 0.01 0.01 0.02 0.01 0.01 0.02 0.02 0.02 0.02 0.01 0.01 0.02 0.01 0.01 0.03 0.03 0.04 0.03 0.02 0.02 0.02 0.02 0.02 0.02 0.01 0.01 0.01 0.02 0.02 0.03 0.05 0.05 0.04 0.05 0.05 0.06 0.07 0.09 0.09 0.07 0.05 0.04
0.00 0.00 0.00 0.01 0.01 0.00 0.01 0.01 0.03 0.03 0.02 0.01 0.01 0.01 0.01 0.01 0.02 0.02 0.03 0.01 0.01 0.01 0.02 0.02 0.01 0.00 0.01 0.01 0.02 0.03 0.03 0.03 0.04 0.03 0.05 0.05 0.06 0.05 0.07 0.09 0.09 0.06 0.04
0.01 0.01 0.01 0.01 0.01 0.00 0.01 0.01 0.01 0.01 0.02 0.01 0.01 0.01 0.01 0.01 0.01 0.01 0.02 0.01 0.01 0.01 0.01 0.02 0.01 0.01 0.01 0.01 0.01 0.02 0.02 0.02 0.03 0.02 0.03 0.04 0.03 0.02 0.03 0.04 0.04 0.05 0.05
0.00 0.01 0.00 0.01 0.01 0.00 0.01 0.02 0.01 0.01 0.02 0.02 0.01 0.01 0.00 0.01 0.01 0.01 0.02 0.02 0.01 0.02 0.02 0.02 0.02 0.02 0.02 0.02 0.02 0.02 0.02 0.03 0.02 0.02 0.02 0.03 0.03 0.02 0.02 0.03 0.03 0.05 0.07
0.00 0.00 0.00 0.00 0.00 0.01 0.01 0.01 0.01 0.01 0.02 0.02 0.02 0.01 0.01 0.01 0.01 0.01 0.02 0.02 0.02 0.02 0.02 0.02 0.02 0.03 0.02 0.02 0.02 0.02 0.03 0.03 0.04 0.03 0.01 0.03 0.03 0.03 0.03 0.05 0.06 0.07 0.09
0.00 0.00 0.00 0.00 0.00 0.01 0.00 0.01 0.01 0.01 0.01 0.01 0.02 0.02 0.01 0.02 0.01 0.01 0.01 0.02 0.02 0.02 0.03 0.03 0.02 0.03 0.02 0.01 0.01 0.01 0.02 0.02 0.04 0.05 0.03 0.03 0.02 0.03 0.04 0.05 0.05 0.07 0.08
0.00 0.00 0.00 0.01 0.01 0.02 0.02 0.02 0.02 0.02 0.01 0.01 0.01 0.01 0.01 0.01 0.02 0.02 0.03 0.03 0.02 0.03 0.03 0.03 0.02 0.01 0.01 0.01 0.01 0.01 0.02 0.03 0.05 0.05 0.03 0.03 0.03 0.03 0.04 0.05 0.04 0.04 0.05
0.00 0.00 0.00 0.00 0.01 0.01 0.01 0.01 0.01 0.01 0.01 0.01 0.01 0.01 0.01 0.01 0.01 0.01 0.02 0.02 0.02 0.03 0.02 0.02 0.02 0.01 0.01 0.01 0.02 0.02 0.03 0.04 0.05 0.04 0.03 0.02 0.02 0.03 0.05 0.07 0.05 0.04 0.03
0.00 0.00 0.00 0.00 0.00 0.00 0.00 0.00 0.00 0.01 0.01 0.01 0.01 0.01 0.01 0.01 0.01 0.01 0.01 0.01 0.02 0.02 0.03 0.03 0.02 0.03 0.03 0.02 0.03 0.05 0.05 0.06 0.05 0.03 0.02 0.01 0.01 0.01 0.03 0.03 0.03 0.03 0.03
0.00 0.00 0.00 0.00 0.01 0.01 0.00 0.00 0.01 0.01 0.02 0.01 0.01 0.00 0.00 0.01 0.01 0.01 0.01 0.01 0.01 0.01 0.02 0.02 0.02 0.03 0.03 0.04 0.04 0.04 0.03 0.04 0.05 0.05 0.04 0.02 0.01 0.01 0.02 0.02 0.03 0.03 0.03
0.00 0.00 0.00 0.00 0.00 0.01 0.01 0.01 0.01 0.01 0.02 0.02 0.01 0.00 0.00 0.01 0.00 0.00 0.01 0.01 0.00 0.01 0.02 0.01 0.01 0.02 0.01 0.03 0.03 0.03 0.02 0.03 0.02 0.03 0.04 0.02 0.01 0.01 0.02 0.03 0.02 0.02 0.02
0.01 0.01 0.00 0.00 0.00 0.00 0.00 0.00 0.01 0.01 0.01 0.01 0.01 0.01 0.02 0.02 0.01 0.01 0.00 0.01 0.01 0.01 0.02 0.01 0.01 0.01 0.01 0.02 0.03 0.03 0.03 0.03 0.03 0.02 0.02 0.02 0.02 0.02 0.02 0.03 0.03 0.03 0.03
MSLP
1013.91 1013.39 1012.97 1012.70 1012.59 1012.61 1012.71 1012.82 1012.88 1012.86 1012.75 1012.57 1012.38 1012.21 1012.11 1012.08 1012.11 1012.18 1012.26 1012.32 1012.33 1012.30 1012.23 1012.15 1012.08 1012.04 1012.03 1012.06 1012.13 1012.23 1012.33 1012.44 1012.55 1012.66 1012.76 1012.86 1012.96 1013.06 1013.17 1013.27 1013.37 1013.45 1013.53
1014.04 1013.56 1013.17 1012.93 1012.84 1012.86 1012.93 1013.01 1013.02 1012.95 1012.81 1012.63 1012.45 1012.33 1012.29 1012.32 1012.42 1012.54 1012.66 1012.74 1012.76 1012.73 1012.67 1012.59 1012.53 1012.49 1012.49 1012.53 1012.59 1012.67 1012.77 1012.87 1012.99 1013.11 1013.24 1013.36 1013.49 1013.60 1013.69 1013.76 1013.82 1013.86 1013.89
1014.10 1013.65 1013.30 1013.09 1013.01 1013.03 1013.09 1013.13 1013.12 1013.03 1012.88 1012.70 1012.55 1012.47 1012.47 1012.55 1012.68 1012.83 1012.97 1013.05 1013.08 1013.06 1013.02 1012.97 1012.93 1012.93 1012.95 1012.99 1013.06 1013.13 1013.22 1013.33 1013.45 1013.59 1013.75 1013.91 1014.05 1014.18 1014.26 1014.32 1014.33 1014.34 1014.34
1014.05 1013.64 1013.33 1013.15 1013.10 1013.13 1013.20 1013.24 1013.22 1013.13 1012.98 1012.83 1012.70 1012.65 1012.68 1012.77 1012.92 1013.07 1013.20 1013.28 1013.31 1013.32 1013.30 1013.30 1013.31 1013.36 1013.42 1013.49 1013.57 1013.65 1013.74 1013.84 1013.97 1014.13 1014.31 1014.49 1014.66 1014.80 1014.89 1014.93 1014.92 1014.90 1014.89
1013.89 1013.53 1013.27 1013.15 1013.14 1013.21 1013.30 1013.37 1013.36 1013.29 1013.17 1013.04 1012.94 1012.90 1012.94 1013.04 1013.17 1013.30 1013.40 1013.47 1013.51 1013.54 1013.57 1013.63 1013.71 1013.82 1013.94 1014.05 1014.15 1014.23 1014.32 1014.42 1014.56 1014.73 1014.93 1015.13 1015.32 1015.47 1015.56 1015.59 1015.58 1015.55 1015.53
1013.67 1013.37 1013.18 1013.12 1013.18 1013.31 1013.45 1013.55 1013.58 1013.54 1013.45 1013.35 1013.27 1013.25 1013.29 1013.37 1013.48 1013.57 1013.65 1013.71 1013.76 1013.81 1013.90 1014.02 1014.18 1014.36 1014.53 1014.68 1014.81 1014.90 1014.99 1015.09 1015.22 1015.39 1015.60 1015.82 1016.02 1016.17 1016.26 1016.29 1016.28 1016.25 1016.24
1013.47 1013.23 1013.12 1013.14 1013.28 1013.47 1013.67 1013.82 1013.89 1013.88 1013.83 1013.76 1013.71 1013.70 1013.74 1013.81 1013.89 1013.96 1014.02 1014.06 1014.11 1014.20 1014.33 1014.52 1014.74 1014.98 1015.21 1015.40 1015.54 1015.64 1015.72 1015.81 1015.94 1016.11 1016.32 1016.54 1016.75 1016.90 1016.99 1017.02 1017.00 1016.98 1016.98
1013.36 1013.19 1013.15 1013.26 1013.47 1013.73 1013.98 1014.17 1014.28 1014.31 1014.29 1014.25 1014.23 1014.25 1014.30 1014.37 1014.44 1014.49 1014.53 1014.57 1014.63 1014.74 1014.91 1015.14 1015.41 1015.70 1015.96 1016.17 1016.31 1016.41 1016.48 1016.57 1016.69 1016.85 1017.06 1017.29 1017.49 1017.65 1017.73 1017.76 1017.73 1017.70 1017.71
1013.40 1013.29 1013.33 1013.51 1013.78 1014.09 1014.37 1014.59 1014.73 1014.78 1014.79 1014.79 1014.81 1014.85 1014.93 1015.02 1015.10 1015.16 1015.20 1015.24 1015.31 1015.42 1015.61 1015.86 1016.16 1016.46 1016.73 1016.94 1017.09 1017.18 1017.24 1017.32 1017.43 1017.60 1017.81 1018.04 1018.25 1018.40 1018.48 1018.49 1018.45 1018.41 1018.41
1013.61 1013.55 1013.65 1013.89 1014.20 1014.53 1014.83 1015.05 1015.19 1015.26 1015.29 1015.32 1015.38 1015.47 1015.59 1015.72 1015.83 1015.91 1015.97 1016.01 1016.08 1016.20 1016.38 1016.63 1016.91 1017.21 1017.47 1017.67 1017.81 1017.89 1017.95 1018.03 1018.14 1018.32 1018.54 1018.77 1018.98 1019.13 1019.21 1019.20 1019.15 1019.09 1019.06
1013.95 1013.94 1014.09 1014.36 1014.69 1015.03 1015.31 1015.52 1015.65 1015.71 1015.75 1015.81 1015.91 1016.05 1016.23 1016.41 1016.56 1016.68 1016.76 1016.82 1016.89 1016.99 1017.15 1017.37 1017.63 1017.90 1018.14 1018.33 1018.45 1018.53 1018.59 1018.68 1018.80 1018.99 1019.22 1019.47 1019.69 1019.85 1019.92 1019.90 1019.83 1019.74 1019.69
1014.37 1014.41 1014.59 1014.88 1015.21 1015.53 1015.78 1015.96 1016.06 1016.11 1016.15 1016.22 1016.36 1016.55 1016.78 1017.01 1017.22 1017.38 1017.49 1017.56 1017.63 1017.72 1017.85 1018.04 1018.26 1018.50 1018.71 1018.88 1019.01 1019.09 1019.17 1019.26 1019.41 1019.61 1019.87 1020.13 1020.36 1020.53 1020.60 1020.58 1020.49 1020.38 1020.29
1014.80 1014.88 1015.08 1015.38 1015.70 1015.99 1016.21 1016.35 1016.41 1016.44 1016.47 1016.55 1016.71 1016.93 1017.20 1017.49 1017.75 1017.95 1018.09 1018.18 1018.25 1018.33 1018.45 1018.60 1018.80 1019.00 1019.20 1019.36 1019.49 1019.59 1019.68 1019.80 1019.97 1020.19 1020.46 1020.74 1020.98 1021.16 1021.24 1021.23 1021.13 1021.01 1020.89
1015.17 1015.29 1015.52 1015.82 1016.13 1016.40 1016.59 1016.69 1016.72 1016.72 1016.73 1016.81 1016.96 1017.20 1017.50 1017.81 1018.11 1018.35 1018.53 1018.65 1018.73 1018.81 1018.92 1019.06 1019.23 1019.43 1019.62 1019.80 1019.94 1020.06 1020.18 1020.32 1020.50 1020.73 1021.00 1021.29 1021.54 1021.73 1021.82 1021.83 1021.74 1021.61 1021.49
1015.46 1015.61 1015.86 1016.16 1016.47 1016.73 1016.90 1016.98 1016.99 1016.97 1016.96 1017.02 1017.16 1017.39 1017.68 1018.01 1018.32 1018.59 1018.80 1018.95 1019.06 1019.17 1019.29 1019.43 1019.62 1019.82 1020.03 1020.22 1020.39 1020.54 1020.68 1020.83 1021.01 1021.24 1021.50 1021.77 1022.02 1022.21 1022.33 1022.35 1022.30 1022.19 1022.08
1015.64 1015.81 1016.07 1016.39 1016.70 1016.97 1017.15 1017.24 1017.25 1017.22 1017.19 1017.22 1017.33 1017.52 1017.79 1018.10 1018.41 1018.70 1018.94 1019.14 1019.29 1019.44 1019.59 1019.77 1019.98 1020.21 1020.44 1020.66 1020.86 1021.03 1021.19 1021.34 1021.51 1021.71 1021.93 1022.17 1022.41 1022.60 1022.73 1022.79 1022.78 1022.72 1022.63
1015.74 1015.91 1016.18 1016.51 1016.84 1017.13 1017.35 1017.47 1017.50 1017.48 1017.45 1017.44 1017.51 1017.65 1017.87 1018.15 1018.45 1018.75 1019.02 1019.26 1019.47 1019.67 1019.87 1020.09 1020.34 1020.60 1020.87 1021.12 1021.34 1021.53 1021.69 1021.84 1021.98 1022.14 1022.31 1022.50 1022.70 1022.88 1023.02 1023.12 1023.16 1023.16 1023.13
1015.78 1015.95 1016.21 1016.55 1016.91 1017.24 1017.51 1017.68 1017.76 1017.77 1017.74 1017.71 1017.73 1017.82 1017.98 1018.22 1018.49 1018.79 1019.09 1019.37 1019.64 1019.89 1020.15 1020.41 1020.70 1020.99 1021.29 1021.56 1021.81 1022.01 1022.17 1022.30 1022.40 1022.51 1022.62 1022.75 1022.90 1023.05 1023.20 1023.33 1023.44 1023.50 1023.54
1015.80 1015.95 1016.20 1016.54 1016.92 1017.30 1017.63 1017.88 1018.02 1018.08 1018.07 1018.03 1018.01 1018.05 1018.15 1018.33 1018.58 1018.87 1019.19 1019.51 1019.82 1020.12 1020.42 1020.72 1021.03 1021.34 1021.65 1021.94 1022.20 1022.41 1022.57 1022.68 1022.75 1022.81 1022.86 1022.93 1023.03 1023.15 1023.29 1023.45 1023.61 1023.75 1023.86
1015.83 1015.95 1016.17 1016.50 1016.90 1017.32 1017.72 1018.05 1018.28 1018.40 1018.42 1018.39 1018.34 1018.33 1018.39 1018.52 1018.73 1019.01 1019.34 1019.68 1020.02 1020.35 1020.67 1020.99 1021.30 1021.61 1021.91 1022.20 1022.46 1022.68 1022.85 1022.95 1023.01 1023.04 1023.04 1023.06 1023.10 1023.19 1023.32 1023.49 1023.69 1023.89 1024.08
1015.88 1015.96 1016.15 1016.46 1016.86 1017.33 1017.79 1018.20 1018.51 1018.70 1018.78 1018.77 1018.72 1018.67 1018.68 1018.78 1018.96 1019.22 1019.53 1019.88 1020.23 1020.57 1020.89 1021.19 1021.48 1021.77 1022.05 1022.33 1022.59 1022.81 1022.99 1023.12 1023.18 1023.19 1023.18 1023.16 1023.16 1023.21 1023.32 1023.49 1023.71 1023.96 1024.21
1015.93 1015.98 1016.14 1016.42 1016.82 1017.31 1017.83 1018.31 1018.71 1018.98 1019.11 1019.14 1019.10 1019.04 1019.02 1019.08 1019.23 1019.46 1019.77 1020.10 1020.44 1020.76 1021.05 1021.32 1021.56 1021.80 1022.05 1022.31 1022.57 1022.81 1023.02 1023.18 1023.27 1023.30 1023.29 1023.25 1023.22 1023.24 1023.31 1023.46 1023.69 1023.96 1024.25
1015.96 1016.01 1016.13 1016.39 1016.78 1017.28 1017.84 1018.38 1018.85 1019.20 1019.40 1019.47 1019.46 1019.40 1019.37 1019.40 1019.52 1019.73 1020.01 1020.32 1020.63 1020.91 1021.16 1021.37 1021.56 1021.75 1021.96 1022.19 1022.45 1022.72 1022.97 1023.18 1023.32 1023.39 1023.40 1023.36 1023.32 1023.30 1023.33 1023.45 1023.65 1023.91 1024.22
1015.95 1016.01 1016.12 1016.36 1016.73 1017.23 1017.81 1018.41 1018.94 1019.35 1019.62 1019.75 1019.77 1019.73 1019.69 1019.71 1019.81 1019.99 1020.23 1020.52 1020.79 1021.04 1021.24 1021.39 1021.53 1021.66 1021.83 1022.04 1022.30 1022.59 1022.89 1023.15 1023.36 1023.48 1023.53 1023.50 1023.45 1023.39 1023.39 1023.45 1023.61 1023.84 1024.13
1015.88 1015.97 1016.09 1016.31 1016.66 1017.16 1017.75 1018.38 1018.96 1019.43 1019.76 1019.93 1019.99 1019.98 1019.95 1019.96 1020.05 1020.21 1020.43 1020.68 1020.93 1021.14 1021.30 1021.41 1021.50 1021.59 1021.73 1021.92 1022.18 1022.49 1022.83 1023.15 1023.41 1023.59 1023.67 1023.67 1023.61 1023.53 1023.47 1023.48 1023.57 1023.75 1024.01
1015.73 1015.87 1016.01 1016.23 1016.57 1017.06 1017.65 1018.29 1018.90 1019.41 1019.79 1020.02 1020.12 1020.13 1020.12 1020.14 1020.22 1020.37 1020.58 1020.82 1021.05 1021.24 1021.38 1021.47 1021.53 1021.60 1021.71 1021.89 1022.15 1022.47 1022.83 1023.19 1023.50 1023.72 1023.83 1023.85 1023.78 1023.68 1023.58 1023.52 1023.55 1023.66 1023.86
Thickness
5771 5771 5769 5769 5770 5770 5771 5771 5772 5773 5773 5773 5773 5773 5773 5773 5773 5773 5773 5774 5774 5774 5774 5774 5774 5774 5775 5776 5776 5774 5775 5774 5774 5774 5774 5774 5774 5774 5774 5774 5774 5773 5772
5773 5770 5768 5767 5768 5768 5768 5769 5769 5770 5770 5770 5770 5770 5770 5769 5770 5770 5770 5770 5771 5771 5771 5771 5771 5771 5771 5771 5771 5771 5771 5771 5772 5772 5771 5771 5771 5771 5771 5771 5772 5771 5770
5772 5769 5766 5765 5765 5765 5765 5766 5766 5767 5767 5767 5766 5766 5766 5766 5766 5767 5767 5767 5767 5767 5767 5767 5767 5767 5768 5768 5768 5768 5768 5768 5769 5769 5769 5768 5768 5768 5768 5768 5768 5768 5767
5772 5767 5764 5763 5762 5762 5763 5763 5763 5764 5764 5763 5763 5763 5763 5763 5763 5763 5763 5764 5764 5764 5764 5764 5764 5764 5764 5764 5764 5765 5765 5765 5765 5766 5765 5766 5766 5765 5765 5765 5765 5764 5764
5770 5765 5761 5760 5760 5760 5760 5760 5760 5760 5761 5760 5760 5760 5760 5759 5759 5759 5760 5760 5760 5760 5760 5760 5760 5760 5760 5760 5760 5761 5761 5761 5761 5761 5761 5761 5761 5761 5761 5760 5760 5760 5760
5768 5764 5760 5759 5758 5757 5757 5757 5757 5757 5757 5757 5757 5757 5756 5756 5756 5756 5756 5756 5756 5756 5756 5756 5756 5755 5755 5756 5756 5757 5757 5757 5757 5757 5757 5757 5757 5757 5756 5756 5756 5756 5756
5766 5763 5759 5757 5756 5755 5754 5754 5754 5754 5754 5754 5754 5753 5753 5753 5753 5752 5752 5752 5752 5752 5752 5751 5751 5751 5751 5752 5752 5753 5753 5753 5753 5752 5752 5752 5752 5752 5752 5751 5751 5751 5751
5766 5763 5759 5756 5754 5753 5752 5752 5751 5751 5751 5751 5751 5750 5750 5749 5749 5749 5748 5748 5747 5748 5747 5747 5746 5746 5747 5747 5748 5748 5749 5750 5749 5748 5747 5747 5747 5747 5747 5747 5747 5747 5746
5766 5763 5759 5756 5753 5752 5750 5749 5749 5748 5748 5748 5748 5747 5747 5746 5746 5745 5744 5744 5743 5743 5742 5742 5742 5742 5742 5743 5743 5744 5744 5745 5744 5744 5743 5742 5742 5742 5742 5742 5742 5742 5742
5764 5762 5759 5757 5754 5751 5749 5747 5747 5746 5746 5746 5745 5745 5744 5743 5742 5741 5740 5739 5739 5738 5738 5737 5737 5737 5738 5739 5739 5739 5740 5739 5739 5738 5738 5738 5738 5738 5738 5737 5737 5737 5737
5760 5760 5759 5756 5754 5751 5749 5746 5745 5744 5743 5743 5743 5742 5742 5741 5739 5737 5736 5735 5735 5734 5734 5733 5733 5733 5734 5735 5735 5736 5735 5734 5734 5733 5732 5733 5733 5733 5733 5733 5732 5732 5732
5754 5756 5756 5755 5753 5751 5749 5745 5744 5743 5741 5741 5741 5740 5739 5738 5736 5734 5733 5732 5731 5731 5731 5730 5730 5730 5730 5731 5731 5731 5731 5730 5729 5728 5727 5728 5728 5728 5728 5728 5728 5727 5728
5753 5753 5754 5753 5751 5749 5747 5745 5743 5741 5740 5739 5739 5738 5737 5735 5733 5731 5729 5728 5727 5727 5728 5727 5727 5727 5727 5728 5728 5727 5727 5725 5724 5722 5723 5724 5724 5723 5723 5723 5723 5723 5723
5751 5751 5752 5752 5750 5748 5745 5742 5741 5739 5737 5736 5736 5735 5734 5732 5730 5729 5727 5726 5725 5725 5725 5725 5724 5724 5724 5724 5724 5723 5722 5721 5719 5718 5718 5720 5720 5720 5719 5719 5719 5719 5719
5748 5749 5749 5749 5748 5745 5743 5741 5738 5736 5735 5734 5732 5732 5730 5728 5726 5725 5724 5723 5723 5722 5722 5721 5721 5720 5720 5720 5719 5719 5718 5717 5715 5714 5714 5714 5715 5715 5715 5715 5714 5714 5714
5747 5747 5747 5747 5745 5743 5741 5738 5736 5734 5732 5731 5729 5729 5728 5726 5724 5722 5721 5720 5719 5719 5719 5718 5717 5716 5715 5715 5714 5714 5713 5712 5711 5710 5709 5709 5709 5710 5710 5710 5710 5710 5710
5747 5747 5745 5745 5743 5741 5738 5736 5734 5732 5730 5728 5726 5726 5725 5723 5721 5719 5718 5717 5716 5716 5715 5714 5713 5712 5711 5711 5710 5709 5709 5709 5708 5707 5706 5705 5704 5704 5705 5705 5705 5705 5705
5747 5745 5744 5743 5740 5737 5735 5733 5731 5729 5727 5725 5723 5722 5722 5720 5718 5716 5714 5713 5713 5712 5711 5709 5708 5706 5705 5705 5704 5705 5704 5704 5704 5703 5702 5701 5701 5700 5700 5700 5700 5700 5700
5747 5744 5741 5740 5737 5734 5732 5730 5728 5726 5723 5721 5720 5719 5718 5717 5715 5713 5711 5711 5710 5708 5707 5706 5704 5702 5700 5700 5700 5700 5699 5699 5699 5699 5698 5697 5697 5696 5695 5695 5695 5695 5695
5747 5744 5740 5737 5735 5732 5729 5727 5724 5722 5720 5718 5717 5715 5715 5713 5711 5710 5708 5707 5706 5704 5702 5701 5699 5698 5697 5697 5697 5695 5695 5695 5695 5694 5694 5693 5693 5692 5692 5691 5690 5690 5689
5744 5741 5738 5735 5732 5729 5724 5721 5717 5715 5715 5714 5714 5713 5711 5710 5708 5707 5706 5704 5702 5700 5698 5697 5696 5694 5693 5693 5690 5687 5688 5691 5690 5690 5690 5689 5689 5689 5688 5688 5686 5685 5684
5741 5739 5736 5734 5730 5727 5723 5721 5718 5715 5713 5712 5711 5710 5709 5707 5706 5705 5703 5701 5700 5698 5696 5694 5692 5690 5689 5690 5687 5681 5677 5678 5682 5685 5685 5684 5684 5685 5684 5684 5683 5682 5681
5739 5737 5735 5733 5730 5727 5724 5720 5717 5714 5711 5708 5706 5706 5706 5705 5704 5703 5702 5700 5698 5696 5693 5692 5690 5688 5684 5686 5687 5681 5674 5669 5672 5677 5679 5680 5680 5680 5680 5680 5679 5679 5677
5737 5736 5734 5731 5729 5726 5723 5718 5713 5708 5704 5704 5704 5704 5704 5704 5702 5701 5700 5699 5697 5695 5692 5691 5690 5687 5684 5681 5683 5684 5682 5678 5671 5667 5672 5675 5676 5676 5676 5676 5676 5674 5673
5736 5734 5731 5729 5726 5724 5721 5717 5713 5709 5706 5705 5704 5703 5702 5701 5700 5699 5698 5697 5695 5693 5691 5690 5688 5686 5684 5681 5680 5680 5679 5678 5677 5669 5664 5667 5669 5671 5673 5673 5672 5671 5670
5733 5730 5727 5724 5722 5721 5719 5716 5712 5708 5705 5702 5700 5698 5698 5697 5697 5697 5696 5695 5693 5691 5690 5688 5687 5685 5683 5682 5680 5679 5677 5675 5673 5670 5665 5663 5663 5666 5669 5669 5669 5668 5667